Location: Atherton
(17.2661°S, 145.4859°E)
Time: 23:09:04
(UTC+10:00)

Vanguard 1 - Pass Details

Date: 30 June 2025
Orbit: 649 x 3822 km, 34.2° (Epoch: 17 July)

Event Time Altitude Azimuth Distance (km) Brightness Sun altitude
Rises 03:16:01 0° 266° (W) 3,126 - -48.8°
Reaches altitude 10° 03:19:48 10° 296° (WNW) 2,053 - -48.0°
Maximum altitude 03:21:44 12° 323° (NW) 1,876 - -47.5°
Drops below altitude 10° 03:23:40 10° 349° (N) 2,068 - -47.1°
Sets 03:27:32 0° 19° (NNE) 3,176 - -46.2°
